Regional Weather Roundup
Issued by NWS Upton, NY

Home | Current Version | Previous Version | Text Only | Print | Product List | Glossary On
Versions: 1 2 3 4 5 6 7 8 9 10 11 12 13 14 15 16 17 18 19 20 21 22 23 24 25 26 27
000
ASUS41 KOKX 110608
RWROKX

REGIONAL WEATHER ROUNDUP
NATIONAL WEATHER SERVICE NEW YORK NY
100 AM EST SUN DEC 11 2016

NOTE: "FAIR" INDICATES FEW OR NO CLOUDS BELOW 12,000 FEET WITH NO
SIGNIFICANT WEATHER AND/OR OBSTRUCTIONS TO VISIBILITY.

NYZ071-072-176-178-NJZ106-104-110700-
NEW YORK CITY METRO AREA

CITY           SKY/WX    TMP DP  RH WIND       PRES   REMARKS
Central Park     N/A     29  16  58 CALM      30.48R
Wall St Helipt CLEAR     31  20  63 W8        30.49R WCI  23
Bronx Bot Gard NOT AVBL
LaGuardia APRT PTCLDY    32  17  54 NW13      30.47R WCI  22
Kennedy INTL   PTCLDY    30  15  53 W7        30.48R WCI  23
Breezy Point     N/A    N/A N/A N/A NW9G15      N/A
Newark/Liberty PTCLDY    27  16  63 SW6       30.48R WCI  20
Teterboro      CLEAR     26  16  65 CALM      30.47R
$$

NYZ177-179-078>081-110700-
LONG ISLAND NEW YORK

CITY           SKY/WX    TMP DP  RH WIND       PRES   REMARKS
Jones Beach      N/A    N/A N/A N/A NW8         N/A
Matinecock PT    N/A     32 N/A N/A W15         N/A  WCI  22
Farmingdale    CLEAR     28  18  66 W5        30.46S WCI  23
MacArthur/ISP  CLEAR     24  18  77 W5        30.45S WCI  18
Shirley        CLEAR     22  18  85 W3        30.46S
Westhampton    NOT AVBL
Southampton    NOT AVBL
Bridgehampton  NOT AVBL
East Hampton   MOCLDY    18  14  85 CALM      30.44S
Montauk          N/A     31  11  43 NW7       30.45R WCI  24
$$

NYZ052-065-067-110700-
HUDSON VALLEY

CITY           SKY/WX    TMP DP  RH WIND       PRES   REMARKS
White Plains   CLEAR     26  19  74 W7        30.42S WCI  18
Newburgh       CLEAR     21  21 100 CALM      30.44S
Montgomery     CLEAR     17  14  88 CALM      30.43S
Poughkeepsie   CLEAR     18  15  88 CALM      30.44S
Albany         FLURRIES  18  13  80 CALM      30.42S
$$

NJZ001-105-106-008-010-013-015-019>022-104-110700-
NEW JERSEY

CITY           SKY/WX    TMP DP  RH WIND       PRES   REMARKS
Newark/Liberty PTCLDY    27  16  63 SW6       30.48R WCI  20
Teterboro      CLEAR     26  16  65 CALM      30.47R
Caldwell       CLEAR     24  16  71 CALM      30.47S
Somerville     CLEAR     19  14  81 CALM      30.47R
Linden           N/A     27  16  63 W6        30.48S WCI  21
Sussex         CLEAR     15  13  91 CALM      30.43S
Andover          N/A     18  14  84 S3        30.45R
Trenton        PTCLDY    26  15  63 NW5       30.47F WCI  20
Millville      PTCLDY    17  15  92 CALM      30.51R
Atlantic City  CLEAR     24  14  65 W3        30.50F
Wrightstown    PTCLDY    26  16  65 W3        30.46S
Toms River     CLEAR     20  17  88 CALM      30.49S
Belmar         PTCLDY    24  17  74 W7        30.49S WCI  16
$$

PAZ047>061-062-071-110700-
EASTERN PENNSYLVANIA

CITY           SKY/WX    TMP DP  RH WIND       PRES   REMARKS
Philadelphia   PTCLDY    28  15  58 W5        30.51S WCI  23
Allentown      PTCLDY    22  14  71 S3        30.46F
Scranton       MOCLDY    22  15  75 SW3       30.42S
$$

CTZ002-004>006-009-010-012-RIZ004-006-007-MAZ004-011-015-110700-
SOUTHERN NEW ENGLAND
 IN CT

CITY           SKY/WX    TMP DP  RH WIND       PRES   REMARKS
Bradley INTL   CLEAR     15   9  76 CALM      30.44R
Hartford       CLEAR     17  14  88 CALM      30.46R
Danbury        CLEAR     15  12  88 CALM      30.43F
Wtrbury/Oxford CLEAR     19  12  73 CALM      30.41S
Bridgeport     CLEAR     26  19  74 NW3       30.46S
Meriden        CLEAR     16  10  77 CALM      30.45S
New Haven      CLEAR     19  15  84 CALM      30.45S
Chester          N/A     19  10  68 CALM      30.42F
Groton         CLEAR     21  15  78 N5        30.45R WCI  15
Wilimantic     CLEAR     15  11  83 CALM      30.45R

 IN RI

CITY           SKY/WX    TMP DP  RH WIND       PRES   REMARKS
Providence     CLEAR     19  10  68 CALM      30.45R
Block Island   CLEAR     29  13  51 NW7       30.44S WCI  22
Westerly       CLEAR     17  10  74 CALM      30.46R
 IN MA

CITY           SKY/WX    TMP DP  RH WIND       PRES   REMARKS
Boston         CLEAR     22   6  50 NW6       30.44S WCI  14
Worcester      CLEAR     16   8  71 W7        30.36S WCI   6
Westfield      CLEAR     11  10  96 CALM      30.43R
Provincetown   PTCLDY    27  14  58 NW13      30.42S WCI  16
Nantucket      CLEAR     27  10  49 NW12G18   30.42S WCI  17
$$

ANZ330-335-338-340-345-350-353-355-110700-
COASTAL MARINE OBSERVATIONS


STATION/POSITION TIME  SKY/WX   TEMP    WIND        PRES    VSBY  WAVE
                                AIR SEA DIR/SP/G                  HT/PER
                 (UTC)          (F)     (DEG/KT/KT) (MB)    (MI)  (FT/S)
NY HARB ENTRANCE 0450            35 53  300/ 14/ 17 1031.5          2/ 3
20 S FIRE ISLAND 0450            36 52  330/ 14/ 17 1031.0          3/ 5
GREAT SOUTH BAY  0515            31 38                N/A
23 SSW MONTAUK P 0450            35 54  310/ 12/ 16 1030.9          3/ 5
15 E BARNEGAT LI 0530               51                N/A           3/ 4
HUDSON CANYON    0450            39 55              1030.6          4/ 6
KINGS POINT      0536            31 45              1031.4
EXECUTION ROCKS  0545            32     270/ 10/ 12   N/A
CENTRAL LI SOUND 0545            33 48  300/  6/ 10   N/A           1/ 4
EASTERN LI SOUND NOT AVBL
ROBBINS REEF     0536            30     280/  9/ 13 1032.1
$$


>>>>>>>>>>>>>>>>>>>>>>>>>>>> KEY <<<<<<<<<<<<<<<<<<<<<<<<<<<
>                                                          <
>     SKY/WX - Sky Condition/Present Weather               <
>     TMP    - Temperature in Fahrenheit                   <
>     DP     - Dew Point in Fahrenheit                     <
>     RH     - Relative Humidity in Percent                <
>     WIND   - Direction (from) and Speed in MPH           <
>     PRES   - Mean Sea Level Pressure (inches of Hg)      <
>     WCI    - Wind Chill Index                            <
>     VSB    - VISIBILITY IN MILES                         <
>     HX     - HEAT INDEX                                  <
>     TC     - TEMPERATURE IN CELSIUS                      <
>     VRB    - VARIABLE WIND DIRECTION                     <
>                                                          <
>>>>>>>>>>>>>>>>>>>>>>>>>>>> KEY <<<<<<<<<<<<<<<<<<<<<<<<<<<




USA.gov is the U.S. government's official web portal to all federal, state and local government web resources and services.